Location: Montreal
(45.5000°N, 73.5833°W)
Time: 12:23:56
(UTC-04:00)

Tiangong 1 - Pass Details

Date: 07 October 2017
Orbit: 293 x 320 km, 42.8° (Epoch: 19 October)

Event Time Altitude Azimuth Distance (km) Brightness Sun altitude
Rises 20:22:43 0° 257° (WSW) 2,026 5.8 -21.7°
Reaches altitude 10° 20:24:44 10° 250° (WSW) 1,193 4.3 -22.0°
Enters shadow 20:25:42 19° 242° (WSW) 824 3.2 -22.2°
